FW4318 Weather Reports


Display with metric or nautical units.
time (UTC)temp
F
wind
direction
speed
MPH
gust
MPH
rain 1hr
in
rain 24hr
in
rain mn
in
humidity
%
barometer
mb
20260510100030 48 173 5.0 10.0 0.00 0.00 0.00 53 870.5
20260510090026 47 160 0.0 3.0 0.00 0.00 0.00 57 870.6
20260510080056 47 161 4.0 5.0 0.00 0.00 0.00 56 870.8
20260510070415 48 153 4.0 7.0 0.00 0.00 0.00 56 871.0
20260510060116 48 150 3.0 6.0 0.00 0.00 0.00 60 871.1
20260510050111 48 107 0.0 2.0 0.00 0.00 0.00 61 871.3
20260510040109 49 107 0.0 3.0 0.00 0.00 0.00 58 871.1
20260510030119 49 107 3.0 4.0 0.00 0.00 0.00 59 870.7
20260510020412 54 135 1.0 3.0 0.00 0.00 0.00 49 870.6
20260510010104 51 105 4.0 8.0 0.00 0.00 0.00 54 870.6
20260510000053 53 122 3.0 10.0 0.00 0.00 0.00 55 870.8
20260509230114 51 114 9.0 14.0 0.00 0.00 0.00 59 870.7
20260509220103 51 90 5.0 14.0 0.00 0.00 0.00 60 871.1
20260509210107 52 99 5.0 14.0 0.00 0.00 0.00 59 871.1
20260509200038 51 165 3.0 10.0 0.00 0.00 0.00 60 871.1
20260509190043 51 117 1.0 11.0 0.00 0.00 0.00 58 871.4
20260509180038 49 93 1.0 7.0 0.00 0.00 0.00 59 871.4
20260509160114 43 96 4.0 6.0 0.00 0.00 0.00 65 870.4
20260509150047 40 71 3.0 5.0 0.00 0.00 0.00 66 869.7
20260509140104 40 63 0.0 4.0 0.00 0.00 0.00 54 869.9
20260509130100 37 74 2.0 6.0 0.00 0.00 0.00 67 869.3
20260509120114 35 67 6.0 9.0 0.00 0.00 0.00 76 869.2
20260509110028 36 131 1.0 4.0 0.00 0.00 0.00 72 869.2